Weather History for Palm Springs, CA

Change the Weather History Date:

Friday, January 4, 2013

  Actual Average Record
Temperature  
Mean Temperature 51 °F 56 °F  
Max Temperature 63 °F 68 °F 81 °F (1928)
Min Temperature 38 °F 45 °F 24 °F (1950)
Degree Days  
Heating Degree Days 14 9  
Month to date heating degree days 48 36  
Since 1 July heating degree days 349 422  
Cooling Degree Days 0 0  
Month to date cooling degree days 0 0  
Year to date cooling degree days 0 0  
Growing Degree Days 1 (Base 50)    
Moisture  
Dew Point 9 °F    
Average Humidity 19    
Maximum Humidity 28    
Minimum Humidity 9    
Precipitation  
Precipitation 0.00 in 0.05 in 0.81 in (1995)
Month to date precipitation 0.00 0.22  
Year to date precipitation 0.00 0.22  
Since 1 July precipitation 1.22 3.02  
Snow  
Snow 0.00 in - - ()
Month to date snowfall 0.0  
Year to date snowfall 0.0  
Since 1 July snowfall 0.0  
Snow Depth 0.00 in    
Sea Level Pressure  
Sea Level Pressure 30.26 in    
Wind  
Wind Speed 5 mph (NNW)    
Max Wind Speed 10 mph    
Max Gust Speed 14 mph    
Visibility 10 miles    
Events      
T = Trace of Precipitation, MM = Missing Value Source: NWS Daily Summary

Daily Weather History Graph

Daily Weather History Graph

Search for Another Location

Airport:

Trip Planner

Search our weather history database for the weather conditions in past years. The results will help you decide how hot, cold, wet, or windy it might be!

Date:

Astronomy

Jan. 04, 2013 Rise Set
Actual Time 6:51 AM PST 4:51 PM PST
Civil Twilight 6:24 AM PST 5:18 PM PST
Nautical Twilight 5:53 AM PST 5:49 PM PST
Astronomical Twilight 5:22 AM PST 6:19 PM PST
Moon No Moon Rise 10:58 AM PST (1/4)
Length of Visible Light 10h 54m
Length of Day
9h 59m
Waning Gibbous, 54% of the Moon is Illuminated
Jan 4
Waning Gibbous
Jan 4
Last Quarter
Jan 11
New
Jan 18
First Quarter
Jan 26
Full

Hourly Weather History & Observations

Time (PST) Temp. Windchill Dew Point Humidity Pressure Visibility Wind Dir Wind Speed Gust Speed Precip Events Conditions
12:53 AM 44.1 °F 41.5 °F 10.9 °F 26% 30.24 in 10.0 mi NW 4.6 mph - N/A   Clear
1:53 AM 42.1 °F 39.2 °F 10.0 °F 27% 30.25 in 10.0 mi NW 4.6 mph - N/A   Clear
2:53 AM 43.0 °F 38.8 °F 10.9 °F 27% 30.26 in 10.0 mi NNW 6.9 mph - N/A   Clear
3:53 AM 41.0 °F 36.4 °F 9.0 °F 27% 30.26 in 10.0 mi NNW 6.9 mph - N/A   Clear
5:53 AM 39.9 °F 35.8 °F 8.1 °F 27% 30.26 in 10.0 mi NNW 5.8 mph - N/A   Clear
6:53 AM 39.0 °F 32.8 °F 9.0 °F 29% 30.28 in 10.0 mi NNW 9.2 mph - N/A   Clear
7:53 AM 46.0 °F 43.9 °F 8.1 °F 21% 30.30 in 10.0 mi NW 4.6 mph - N/A   Clear
8:53 AM 52.0 °F - 6.1 °F 16% 30.31 in 10.0 mi Calm Calm - N/A   Clear
9:53 AM 57.0 °F - 3.9 °F 12% 30.32 in 10.0 mi Calm Calm - N/A   Clear
10:53 AM 59.0 °F - 5.0 °F 12% 30.30 in 10.0 mi Calm Calm - N/A   Clear
11:53 AM 62.1 °F - 6.1 °F 11% 30.26 in 10.0 mi ESE 6.9 mph - N/A   Clear
12:53 PM 62.1 °F - 7.0 °F 11% 30.22 in 10.0 mi ESE 9.2 mph - N/A   Clear
1:53 PM 63.0 °F - 3.9 °F 10% 30.22 in 10.0 mi East 8.1 mph - N/A   Clear
2:53 PM 62.1 °F - 8.1 °F 12% 30.22 in 10.0 mi East 5.8 mph - N/A   Clear
3:53 PM 62.1 °F - 8.1 °F 12% 30.22 in 10.0 mi East 6.9 mph - N/A   Clear
4:53 PM 57.9 °F - 12.0 °F 16% 30.22 in 10.0 mi Calm Calm - N/A   Clear
5:53 PM 52.0 °F - 19.0 °F 27% 30.23 in 10.0 mi Calm Calm - N/A   Clear
6:53 PM 50.0 °F - 12.9 °F 23% 30.25 in 10.0 mi NNW 6.9 mph - N/A   Clear
7:53 PM 48.9 °F - 10.9 °F 22% 30.27 in 10.0 mi NNW 4.6 mph - N/A   Clear
8:53 PM 46.0 °F 41.9 °F 10.9 °F 24% 30.28 in 10.0 mi NW 8.1 mph - N/A   Clear
9:53 PM 46.9 °F - 12.9 °F 25% 30.29 in 10.0 mi NNW 4.6 mph - N/A   Clear
10:53 PM 43.0 °F 38.8 °F 10.9 °F 27% 30.29 in 10.0 mi NNW 6.9 mph - N/A   Clear
11:53 PM 43.0 °F 38.2 °F 14.0 °F 31% 30.29 in 10.0 mi NW 8.1 mph - N/A   Clear